CW3786 Weather Reports


Display with metric or nautical units.
time (UTC)temp
F
wind
direction
speed
MPH
gust
MPH
rain 1hr
in
rain 24hr
in
rain mn
in
humidity
%
barometer
mb
20260831034554 69 251 0.0 0.0 0.00 0.00 0.00 64 1003.3
20260831033052 70 251 0.0 0.0 0.00 0.00 0.00 64 1003.0
20260831031553 70 251 0.0 0.0 0.00 0.00 0.00 63 1002.9
20260831030043 70 252 0.0 0.0 0.00 0.00 0.00 62 1002.9
20260831024516 70 252 1.0 0.0 0.00 0.00 0.00 64 1002.7
20260831023100 70 260 0.0 0.0 0.00 0.00 0.00 66 1002.7
20260831023002 70 249 0.0 0.0 0.00 0.00 0.00 66 1002.7
20260831021526 70 281 1.0 0.0 0.00 0.00 0.00 68 1002.7
20260831020022 71 248 0.0 0.0 0.00 0.00 0.00 72 1002.5
20260831014510 71 218 0.0 0.0 0.00 0.00 0.00 74 1002.5
20260831013100 73 259 2.0 0.0 0.00 0.00 0.00 74 1002.5
20260831013004 73 284 2.0 0.0 0.00 0.00 0.00 74 1002.4
20260831011556 74 244 0.0 0.0 0.00 0.00 0.00 71 1002.4
20260831010101 76 275 1.0 0.0 0.00 0.00 0.00 68 1002.4
20260831004547 77 278 1.0 0.0 0.00 0.00 0.00 66 1002.4
20260831003038 79 242 0.0 0.0 0.00 0.00 0.00 65 1002.4
20260831001535 81 263 2.0 0.0 0.00 0.00 0.00 60 1002.5
20260831000030 83 257 0.0 0.0 0.00 0.00 0.00 56 1002.4
20260830234525 82 256 1.0 0.0 0.00 0.00 0.00 53 1002.3
20260830233009 83 267 1.0 0.0 0.00 0.00 0.00 52 1002.4
20260830231557 84 247 1.0 0.0 0.00 0.00 0.00 45 1002.4
20260830231508 84 238 1.0 0.0 0.00 0.00 0.00 45 1002.4
20260830230038 84 263 0.0 0.0 0.00 0.00 0.00 45 1002.4
20260830224532 84 252 0.0 0.0 0.00 0.00 0.00 46 1002.7
20260830223018 85 275 1.0 0.0 0.00 0.00 0.00 41 1002.9
20260830221513 86 281 0.0 0.0 0.00 0.00 0.00 37 1003.0
20260830214549 85 267 2.0 0.0 0.00 0.00 0.00 46 1003.4
20260830213045 85 258 0.0 0.0 0.00 0.00 0.00 47 1003.5
20260830211528 85 248 0.0 0.0 0.00 0.00 0.00 49 1003.8
20260830210021 85 184 0.0 0.0 0.00 0.00 0.00 54 1004.0
20260830204607 85 169 0.0 0.0 0.00 0.00 0.00 55 1004.0
20260830203043 85 169 0.0 0.0 0.00 0.00 0.00 55 1004.0
20260830201557 87 167 0.0 0.0 0.00 0.00 0.00 52 1004.0
20260830200043 85 170 0.0 0.0 0.00 0.00 0.00 56 1003.9
20260830194525 86 360 0.0 0.0 0.00 0.00 0.00 53 1004.0
20260830193014 89 9 0.0 0.0 0.00 0.00 0.00 49 1004.1
20260830191533 89 77 0.0 0.0 0.00 0.00 0.00 50 1004.3
20260830190109 88 103 0.0 0.0 0.00 0.00 0.00 50 1004.3
20260830190001 88 103 0.0 0.0 0.00 0.00 0.00 50 1004.4
20260830184548 86 81 1.0 0.0 0.00 0.00 0.00 54 1004.4
20260830183034 85 38 0.0 0.0 0.00 0.00 0.00 54 1004.4
20260830181533 85 79 0.0 0.0 0.00 0.00 0.00 54 1004.4
20260830180100 85 78 0.0 0.0 0.00 0.00 0.00 52 1004.5
20260830180001 85 78 0.0 0.0 0.00 0.00 0.00 53 1004.5
20260830174536 84 77 0.0 0.0 0.00 0.00 0.00 56 1004.5
20260830173023 84 82 0.0 0.0 0.00 0.00 0.00 55 1004.5
20260830171521 84 97 0.0 0.0 0.00 0.00 0.00 56 1004.4
20260830170057 82 85 0.0 0.0 0.00 0.00 0.00 58 1004.4
20260830164525 81 114 1.0 0.0 0.00 0.00 0.00 59 1004.3
20260830163031 79 108 0.0 0.0 0.00 0.00 0.00 63 1004.2
20260830161553 78 108 1.0 0.0 0.00 0.00 0.00 64 1004.2
20260830160034 77 201 0.0 0.0 0.00 0.00 0.00 66 1004.3
20260830154513 75 211 0.0 0.0 0.00 0.00 0.00 70 1004.3
20260830153100 74 211 0.0 0.0 0.00 0.00 0.00 72 1004.3
20260830151537 72 211 0.0 0.0 0.00 0.00 0.00 78 1004.3
20260830150041 70 211 0.0 0.0 0.00 0.00 0.00 85 1004.3
20260830144530 69 196 0.0 0.0 0.00 0.00 0.00 87 1004.3
20260830143016 68 215 0.0 0.0 0.00 0.00 0.00 87 1003.9
20260830141540 67 215 0.0 0.0 0.00 0.00 0.00 88 1003.9
20260830140021 66 215 0.0 0.0 0.00 0.00 0.00 87 1003.9
20260830134557 66 178 0.0 0.0 0.00 0.00 0.00 86 1003.9
20260830133054 66 178 0.0 0.0 0.00 0.00 0.00 86 1003.6
20260830131548 67 178 0.0 0.0 0.00 0.00 0.00 85 1003.4
20260830130018 67 178 0.0 0.0 0.00 0.00 0.00 84 1003.3
20260830124539 67 178 0.0 0.0 0.00 0.00 0.00 84 1003.3
20260830123026 67 178 0.0 0.0 0.00 0.00 0.00 83 1003.3
20260830121600 67 178 0.0 0.0 0.00 0.00 0.00 83 1003.2
20260830121506 67 178 0.0 0.0 0.00 0.00 0.00 82 1003.1
20260830120049 67 178 0.0 0.0 0.00 0.00 0.00 82 1003.1
20260830114530 67 178 0.0 0.0 0.00 0.00 0.00 80 1003.0
20260830113023 68 178 0.0 0.0 0.00 0.00 0.00 79 1002.9
20260830111527 68 178 0.0 0.0 0.00 0.00 0.00 77 1002.9
20260830110048 68 178 0.0 0.0 0.00 0.00 0.00 76 1002.9
20260830104545 68 178 0.0 0.0 0.00 0.00 0.00 76 1002.9
20260830103031 68 178 0.0 0.0 0.00 0.00 0.00 76 1002.9
20260830101522 67 178 0.0 0.0 0.00 0.00 0.00 76 1002.9
20260830100006 68 178 0.0 0.0 0.00 0.00 0.00 75 1002.9
20260830094504 68 178 0.0 0.0 0.00 0.00 0.00 75 1002.9
20260830093044 68 178 0.0 0.0 0.00 0.00 0.00 75 1002.9
20260830091544 68 178 0.0 0.0 0.00 0.00 0.00 75 1002.8
20260830090040 68 178 0.0 0.0 0.00 0.00 0.00 74 1002.8
20260830084536 68 178 0.0 0.0 0.00 0.00 0.00 72 1002.8
20260830083032 68 178 0.0 0.0 0.00 0.00 0.00 71 1002.8
20260830081536 69 178 0.0 0.0 0.00 0.00 0.00 70 1003.0
20260830080028 69 178 0.0 0.0 0.00 0.00 0.00 69 1002.9
20260830074528 69 178 0.0 0.0 0.00 0.00 0.00 69 1002.9
20260830073010 70 178 0.0 0.0 0.00 0.00 0.00 69 1002.9
20260830071604 70 178 0.0 0.0 0.00 0.00 0.00 68 1002.9
20260830070107 70 178 0.0 0.0 0.00 0.00 0.00 69 1002.8
20260830064537 71 178 0.0 0.0 0.00 0.00 0.00 68 1002.8
20260830063035 71 178 0.0 0.0 0.00 0.00 0.00 65 1002.8
20260830061533 72 178 0.0 0.0 0.00 0.00 0.00 63 1002.7
20260830060041 72 178 0.0 0.0 0.00 0.00 0.00 59 1002.6
20260830054510 73 178 0.0 0.0 0.00 0.00 0.00 57 1002.4
20260830053055 74 178 0.0 0.0 0.00 0.00 0.00 55 1002.4
20260830051538 74 168 0.0 0.0 0.00 0.00 0.00 55 1002.5
20260830050028 74 194 1.0 0.0 0.00 0.00 0.00 55 1002.2
20260830044522 74 271 1.0 0.0 0.00 0.00 0.00 57 1002.5
20260830043004 73 232 0.0 0.0 0.00 0.00 0.00 59 1002.7
20260830041549 74 267 0.0 0.0 0.00 0.00 0.00 56 1002.7
20260830040010 74 269 0.0 0.0 0.00 0.00 0.00 54 1002.3